User: anonymous   Login
Location: Unspecified
(0.0000°N, 0.0000°E)
Time: 00:54:59
(UTC+00:00)
Language:

TET - Orbit

View from above orbital plane
View from above orbital plane
View from above satellite
View from above satellite

Ground track
Ground track

The orbit data is extracted from the following two-line orbital elements,

1 38710U 12039D   18228.94757586 +.00002471 +00000-0 +49253-4 0  9997
2 38710 097.5957 209.2581 0003304 099.0845 261.0778 15.47948633340058
Epoch (UTC): 16 August 2018 22:44:30
Eccentricity: 0.0003304
inclination: 97.5957°
perigee height: 420 km
apogee height: 425 km
right ascension of ascending node: 209.2581°
argument of perigee: 99.0845°
revolutions per day: 15.47948633
mean anomaly at epoch: 261.0778°
orbit number at epoch: 34005

The dashed part of the orbit path shows where the satellite is in the earth's shadow,  

DLR